Location: Limerick
(52.6650°N, 8.6230°W)
Time: 14:17:43
(UTC+00:00)

ISS - Visible Passes

Search period start: 23 March 2017 00:00
Search period end: 02 April 2017 01:00
Orbit: 399 x 409 km, 51.6° (Epoch: 23 March)

Date Brightness Start Highest point End Pass type
(mag) Time Alt. Az. Time Alt. Az. Time Alt. Az.
28 Mar -2.1 21:32:47 10° SSW 21:34:35 19° SSE 21:34:35 19° SSE visible
29 Mar -1.8 20:41:25 10° S 20:43:06 13° SE 20:44:48 10° ESE visible
29 Mar -2.4 22:15:51 10° SW 22:17:42 28° SW 22:17:42 28° SW visible
30 Mar -3.0 21:23:43 10° SW 21:26:41 32° SSE 21:27:55 24° ESE visible
30 Mar -1.4 22:59:38 10° WSW 23:00:35 18° WSW 23:00:35 18° WSW visible
31 Mar -3.9 22:07:17 10° WSW 22:10:32 62° SSE 22:10:36 62° SSE visible
01 Apr -3.5 21:14:58 10° WSW 21:18:08 49° SSE 21:20:28 17° E visible
01 Apr -2.3 22:51:13 10° W 22:53:08 32° W 22:53:08 32° W visible
